West Palm Beach, FL

5:53 AM EDT on September 28, 2016 (GMT -0400)
Palm Beach International

Weather History for KPBI - October, 2014

Change the Weather History Date:

Tuesday, October 28, 2014

  Actual Average Record
Temperature  
Mean Temperature 76 °F 76 °F  
Max Temperature 84 °F 83 °F 91 °F (1972)
Min Temperature 67 °F 69 °F 48 °F (1890)
Degree Days  
Heating Degree Days 0 0  
Month to date heating degree days 0 0  
Since 1 July heating degree days 0 0  
Cooling Degree Days 11 11  
Month to date cooling degree days 383 381  
Year to date cooling degree days 3903 3589  
Growing Degree Days 25 (Base 50)    
Moisture  
Dew Point 65 °F    
Average Humidity 68    
Maximum Humidity 81    
Minimum Humidity 55    
Precipitation  
Precipitation 0.00 in 0.15 in 7.52 in (1895)
Month to date precipitation 5.05 4.72  
Year to date precipitation 57.33 53.79  
Snow  
Snow 0.00 in - - ()
Month to date snowfall 0.0  
Since 1 July snowfall 0.0  
Since 1 September snowfall 0.0  
Snow Depth 0.00 in    
Sea Level Pressure  
Sea Level Pressure 30.10 in    
Wind  
Wind Speed 9 mph (East)    
Max Wind Speed 17 mph    
Max Gust Speed 22 mph    
Visibility 10 miles    
Events      
T = Trace of Precipitation, MM = Missing Value Source: NWS Daily Summary

Daily Weather History Graph

Daily Weather History Graph

Search for Another Location

Airport or City:

Trip Planner

Search our weather history database for the weather conditions in past years. The results will help you decide how hot, cold, wet, or windy it might be!

Date:

Astronomy

Oct. 28, 2014 Rise Set
Actual Time 7:27 AM EDT 6:40 PM EDT
Civil Twilight 7:03 AM EDT 7:04 PM EDT
Nautical Twilight 6:36 AM EDT 7:31 PM EDT
Astronomical Twilight 6:09 AM EDT 7:58 PM EDT
Moon 11:45 AM EDT 10:53 PM EDT
Length of Visible Light 12h 00m
Length of Day
11h 13m
Waxing Crescent, 24% of the Moon is Illuminated
Oct 28
Waxing Crescent
Oct 30
First Quarter
Nov 6
Full
Nov 14
Last Quarter
Nov 22
New

Hourly Weather History & Observations

Time (EDT) Temp. Heat Index Dew Point Humidity Pressure Visibility Wind Dir Wind Speed Gust Speed Precip Events Conditions
12:53 AM 75.0 °F - 63.0 °F 66% 30.09 in 10.0 mi East 3.5 mph - N/A   Scattered Clouds
1:53 AM 71.1 °F - 64.0 °F 78% 30.09 in 10.0 mi Calm Calm - N/A   Scattered Clouds
2:53 AM 75.0 °F - 62.1 °F 64% 30.08 in 10.0 mi East 5.8 mph - N/A   Partly Cloudy
3:53 AM 73.9 °F - 61.0 °F 64% 30.07 in 10.0 mi ENE 4.6 mph - N/A   Partly Cloudy
4:53 AM 68.0 °F - 62.1 °F 81% 30.08 in 10.0 mi Calm Calm - N/A   Partly Cloudy
5:53 AM 69.1 °F - 63.0 °F 81% 30.09 in 10.0 mi Calm Calm - N/A   Scattered Clouds
6:53 AM 75.9 °F - 64.0 °F 67% 30.11 in 10.0 mi East 9.2 mph - N/A   Scattered Clouds
7:53 AM 75.9 °F - 63.0 °F 64% 30.12 in 10.0 mi East 6.9 mph - N/A   Scattered Clouds
8:53 AM 79.0 °F - 64.9 °F 62% 30.13 in 10.0 mi East 12.7 mph - N/A   Scattered Clouds
9:53 AM 80.1 °F 81.9 °F 64.9 °F 60% 30.14 in 10.0 mi East 12.7 mph - N/A   Scattered Clouds
10:53 AM 81.0 °F 83.0 °F 66.0 °F 60% 30.15 in 10.0 mi East 11.5 mph - N/A   Mostly Cloudy
11:53 AM 82.0 °F 84.1 °F 66.0 °F 58% 30.14 in 10.0 mi East 12.7 mph - N/A   Scattered Clouds
12:53 PM 82.0 °F 84.5 °F 66.9 °F 60% 30.12 in 10.0 mi East 15.0 mph 20.7 mph N/A   Scattered Clouds
1:53 PM 84.0 °F 86.5 °F 66.9 °F 56% 30.10 in 10.0 mi East 13.8 mph 19.6 mph N/A   Scattered Clouds
2:53 PM 82.9 °F 85.0 °F 66.0 °F 56% 30.08 in 10.0 mi East 11.5 mph - N/A   Scattered Clouds
3:53 PM 82.0 °F 84.5 °F 66.9 °F 60% 30.08 in 10.0 mi East 12.7 mph - N/A   Scattered Clouds
4:53 PM 81.0 °F 83.3 °F 66.9 °F 62% 30.08 in 10.0 mi East 11.5 mph - N/A   Scattered Clouds
5:53 PM 80.1 °F 82.1 °F 66.0 °F 62% 30.08 in 10.0 mi East 11.5 mph - N/A   Scattered Clouds
6:53 PM 79.0 °F - 66.9 °F 66% 30.08 in 10.0 mi East 11.5 mph - N/A   Partly Cloudy
7:53 PM 79.0 °F - 66.9 °F 66% 30.09 in 10.0 mi ENE 9.2 mph - N/A   Partly Cloudy
8:53 PM 78.1 °F - 66.0 °F 66% 30.10 in 10.0 mi ENE 8.1 mph - N/A   Partly Cloudy
9:53 PM 78.1 °F - 66.0 °F 66% 30.11 in 10.0 mi ENE 9.2 mph - N/A   Partly Cloudy
10:53 PM 78.1 °F - 66.0 °F 66% 30.11 in 10.0 mi East 9.2 mph - N/A   Scattered Clouds
11:53 PM 78.1 °F - 68.0 °F 71% 30.11 in 10.0 mi East 10.4 mph - N/A   Mostly Cloudy